Weather History for Brownsville, TX

Change the Weather History Date:

Sunday, May 25, 2014

  Actual Average Record
Temperature  
Mean Temperature 83 °F 82 °F  
Max Temperature 89 °F 90 °F 96 °F (1919)
Min Temperature 77 °F 74 °F 52 °F (1901)
Degree Days  
Heating Degree Days 0 0  
Month to date heating degree days 0 0  
Since 1 July heating degree days 824 554  
Cooling Degree Days 18 17  
Month to date cooling degree days 283 372  
Year to date cooling degree days 817 989  
Growing Degree Days 33 (Base 50)    
Moisture  
Dew Point 73 °F    
Average Humidity 75    
Maximum Humidity 94    
Minimum Humidity 55    
Precipitation  
Precipitation 0.00 in 0.09 in 1.76 in (2007)
Month to date precipitation 2.09 2.09  
Year to date precipitation 4.59 7.21  
Sea Level Pressure  
Sea Level Pressure 29.93 in    
Wind  
Wind Speed 16 mph (SE)    
Max Wind Speed 26 mph    
Max Gust Speed 31 mph    
Visibility 9 miles    
Events      
T = Trace of Precipitation, MM = Missing Value Source: NWS Daily Summary

Daily Weather History Graph

Daily Weather History Graph

Search for Another Location

Airport:

Trip Planner

Search our weather history database for the weather conditions in past years. The results will help you decide how hot, cold, wet, or windy it might be!

Date:

Astronomy

May. 25, 2014 Rise Set
Actual Time 6:39 AM CDT 8:13 PM CDT
Civil Twilight 6:14 AM CDT 8:39 PM CDT
Nautical Twilight 5:43 AM CDT 9:09 PM CDT
Astronomical Twilight 5:12 AM CDT 9:41 PM CDT
Moon 4:25 AM CDT (5/25) 5:32 PM CDT (5/25)
Length of Visible Light 14h 25m
Length of Day
13h 34m
Waning Crescent, 10% of the Moon is Illuminated
May 25
Waning Crescent
May 28
New
Jun 5
First Quarter
Jun 12
Full
Jun 19
Last Quarter

Hourly Weather History & Observations

Time (CDT) Temp. Heat Index Dew Point Humidity Pressure Visibility Wind Dir Wind Speed Gust Speed Precip Events Conditions
12:53 AM 78.1 °F - 73.9 °F 87% 29.95 in 10.0 mi SE 16.1 mph - N/A   Overcast
1:53 AM 78.1 °F - 75.0 °F 90% 29.93 in 9.0 mi SE 16.1 mph 23.0 mph N/A   Overcast
2:53 AM 78.1 °F - 73.9 °F 87% 29.92 in 7.0 mi SE 15.0 mph - N/A   Overcast
3:53 AM 77.0 °F - 75.0 °F 94% 29.91 in 7.0 mi SE 13.8 mph - N/A   Overcast
4:53 AM 77.0 °F - 73.9 °F 90% 29.90 in 7.0 mi SE 15.0 mph - N/A   Overcast
5:53 AM 77.0 °F - 73.9 °F 90% 29.92 in 7.0 mi SE 13.8 mph - N/A   Overcast
6:13 AM 77.0 °F - 73.4 °F 89% 29.93 in 7.0 mi SE 12.7 mph - N/A   Overcast
6:53 AM 77.0 °F - 73.9 °F 90% 29.93 in 8.0 mi ESE 13.8 mph 20.7 mph N/A   Mostly Cloudy
7:49 AM 78.8 °F - 75.2 °F 89% 29.94 in 9.0 mi SE 17.3 mph 24.2 mph N/A   Mostly Cloudy
7:53 AM 78.1 °F - 73.9 °F 87% 29.94 in 9.0 mi SE 17.3 mph 24.2 mph N/A   Mostly Cloudy
8:43 AM 78.8 °F - 73.4 °F 83% 29.97 in 10.0 mi SE 20.7 mph 26.5 mph N/A   Overcast
8:53 AM 80.1 °F 84.5 °F 73.9 °F 81% 29.97 in 10.0 mi SE 17.3 mph 26.5 mph N/A   Overcast
9:53 AM 80.6 °F 85.4 °F 73.4 °F 79% 29.97 in 10.0 mi SE 17.3 mph 27.6 mph N/A   Mostly Cloudy
10:53 AM 82.9 °F 88.0 °F 72.0 °F 69% 29.97 in 10.0 mi SE 20.7 mph 26.5 mph N/A   Overcast
11:16 AM 82.4 °F 87.2 °F 71.6 °F 70% 29.97 in 10.0 mi SE 20.7 mph 27.6 mph N/A   Overcast
11:31 AM 82.4 °F 87.2 °F 71.6 °F 70% 29.97 in 10.0 mi SSE 21.9 mph 29.9 mph N/A   Overcast
11:53 AM 84.0 °F 89.6 °F 72.0 °F 67% 29.96 in 10.0 mi SSE 21.9 mph 31.1 mph N/A   Mostly Cloudy
12:00 PM 86.0 °F 91.8 °F 71.6 °F 62% 29.96 in 10.0 mi SSE 18.4 mph 27.6 mph N/A   Mostly Cloudy
12:53 PM 84.9 °F 89.4 °F 70.0 °F 61% 29.96 in 10.0 mi SE 20.7 mph 29.9 mph N/A   Mostly Cloudy
1:53 PM 88.0 °F 92.9 °F 70.0 °F 55% 29.95 in 10.0 mi SSE 20.7 mph 28.8 mph N/A   Partly Cloudy
2:53 PM 88.0 °F 93.8 °F 71.1 °F 57% 29.94 in 10.0 mi SE 18.4 mph 27.6 mph N/A   Scattered Clouds
3:53 PM 87.1 °F 93.6 °F 72.0 °F 61% 29.91 in 10.0 mi SE 15.0 mph 24.2 mph N/A   Scattered Clouds
4:45 PM 86.0 °F 93.4 °F 73.4 °F 66% 29.90 in 10.0 mi SE 17.3 mph 24.2 mph N/A   Mostly Cloudy
4:53 PM 84.0 °F 89.6 °F 72.0 °F 67% 29.89 in 10.0 mi SE 17.3 mph - N/A   Mostly Cloudy
5:04 PM 84.2 °F 90.9 °F 73.4 °F 70% 29.89 in 10.0 mi SE 16.1 mph 20.7 mph N/A   Mostly Cloudy
5:13 PM 86.0 °F 93.4 °F 73.4 °F 66% 29.89 in 10.0 mi ESE 15.0 mph 23.0 mph N/A   Mostly Cloudy
5:25 PM 84.2 °F 89.6 °F 71.6 °F 66% 29.89 in 10.0 mi ESE 15.0 mph - N/A   Mostly Cloudy
5:53 PM 82.0 °F 87.4 °F 73.0 °F 74% 29.89 in 10.0 mi ESE 17.3 mph 21.9 mph N/A   Scattered Clouds
6:21 PM 80.6 °F 85.4 °F 73.4 °F 79% 29.89 in 10.0 mi SE 17.3 mph 25.3 mph N/A   Mostly Cloudy
6:48 PM 80.6 °F 85.4 °F 73.4 °F 79% 29.90 in 10.0 mi SE 16.1 mph 24.2 mph N/A   Scattered Clouds
6:53 PM 81.0 °F 85.8 °F 73.0 °F 77% 29.89 in 10.0 mi SE 15.0 mph 24.2 mph N/A   Scattered Clouds
7:12 PM 80.6 °F 85.4 °F 73.4 °F 79% 29.89 in 10.0 mi SE 15.0 mph - N/A   Mostly Cloudy
7:53 PM 79.0 °F - 73.9 °F 84% 29.90 in 10.0 mi SE 12.7 mph - N/A   Mostly Cloudy
8:13 PM 78.8 °F - 73.4 °F 83% 29.91 in 10.0 mi SE 11.5 mph - N/A   Scattered Clouds
8:20 PM 78.8 °F - 73.4 °F 83% 29.91 in 10.0 mi ESE 12.7 mph - N/A   Mostly Cloudy
8:53 PM 78.1 °F - 75.0 °F 90% 29.92 in 10.0 mi SE 11.5 mph - N/A   Overcast
9:50 PM 78.8 °F - 75.2 °F 89% 29.94 in 10.0 mi SE 13.8 mph - N/A   Overcast
9:53 PM 79.0 °F - 75.0 °F 88% 29.94 in 10.0 mi ESE 11.5 mph - N/A   Overcast
10:03 PM 78.8 °F - 75.2 °F 89% 29.94 in 10.0 mi SE 11.5 mph - N/A   Overcast
10:18 PM 78.8 °F - 75.2 °F 89% 29.94 in 9.0 mi ESE 9.2 mph - N/A   Overcast
10:53 PM 79.0 °F - 75.9 °F 90% 29.94 in 8.0 mi SE 13.8 mph - N/A   Overcast
11:40 PM 78.8 °F - 75.2 °F 89% 29.96 in 8.0 mi SE 12.7 mph 21.9 mph N/A   Overcast
11:49 PM 78.8 °F - 75.2 °F 89% 29.96 in 8.0 mi SE 13.8 mph - N/A   Overcast
11:53 PM 79.0 °F - 75.9 °F 90% 29.96 in 8.0 mi SE 12.7 mph - N/A   Overcast